Flag for Pakistan Weather past 2 weeks in Karachi, Pakistan

Now
95 °F

Clear.


Feels Like: 92 °F
Forecast: 78 / 92 °F
Wind: 12 mph from Southwest

Location: Karachi Airport

Current Time: Oct 23, 2014 at 3:37:53 PM

Latest Report: Oct 23, 2014 at 2:55 PM


Visibility: 5 mi

Pressure: 29.86 "Hg

Humidity: 20%

Dew point: 48 °F

Location of KarachiLocation

Historic Weather in Karachi — Graph

°F

Karachi temperature yesterday

Maximum temperature yesterday: 99 °F (at 11:25 AM)
Minimum temperature yesterday: 72 °F (at 4:55 AM)
Average temperature yesterday: 85 °F

Past Weeks' High & Low Weather Summary

 TemperatureHumidityPressure
High104 °F (Oct 11, 1:55 PM)89% (Oct 9, 6:30 AM)30.04 "Hg (Oct 9, 6:30 AM)
Low70 °F (Oct 16, 4:25 AM)9% (Oct 11, 1:55 PM)29.62 "Hg (Oct 18, 12:25 PM)
Average85 °F41%29.88 "Hg
* Reported Oct 8 2:25 PM — Oct 23 2:25 PM, Karachi, Weather by CustomWeather, © 2014

Note: Actual official high and low records may vary slightly from our data, if they occured in-between our weather recording intervals... More about our weather records

Advertising

Karachi weather history for previous 24 hours

 ConditionsComfort  
Time TempWeatherWind HumidityBarometerVisibility
2:25 PM
Oct 23
95 °FClear.12 mph18%29.89 "Hg5 mi
1:55 PM95 °FClear.12 mph19%29.89 "Hg5 mi
1:25 PM97 °FClear.12 mph19%29.89 "Hg4 mi
11:55 AM95 °FClear.7 mph15%29.95 "Hg4 mi
11:25 AM93 °FClear.No wind19%29.95 "Hg4 mi
10:55 AM93 °FClear.7 mph20%29.98 "Hg4 mi
10:25 AM91 °FHaze.5 mph23%29.98 "Hg3 mi
9:55 AM88 °FHaze.3 mph31%29.98 "Hg2 mi
9:25 AM84 °FHaze.3 mph37%29.98 "Hg2 mi
8:55 AM82 °FHaze.5 mph40%29.98 "Hg2 mi
8:25 AM77 °FHaze.5 mph44%29.95 "Hg3 mi
7:55 AM75 °FHaze.5 mph47%29.95 "Hg2 mi
7:25 AM72 °FHaze.No wind57%29.95 "Hg2 mi
6:55 AM70 °FHaze.No wind60%29.95 "Hg2 mi
6:25 AM70 °FHaze.5 mph60%29.92 "Hg2 mi
5:55 AM72 °FClear.5 mph69%29.92 "Hg2 mi
5:25 AM72 °FClear.5 mph69%29.92 "Hg2 mi
4:55 AM72 °FClear.6 mph69%29.92 "Hg2 mi
4:25 AM72 °FClear.5 mph69%29.92 "Hg2 mi
3:55 AM75 °FClear.6 mph65%29.92 "Hg2 mi
3:25 AM77 °FHaze.6 mph61%29.92 "Hg2 mi
2:55 AM77 °FHaze.3 mph61%29.92 "Hg2 mi
2:25 AM77 °FHaze.2 mph61%29.92 "Hg2 mi
1:55 AM79 °FHaze.5 mph58%29.92 "Hg2 mi
1:25 AM79 °FHaze.5 mph61%29.92 "Hg2 mi
12:55 AM79 °FHaze.5 mph61%29.95 "Hg2 mi
12:25 AM79 °FHaze.5 mph61%29.95 "Hg2 mi
11:55 PM
Oct 22
79 °FHaze.5 mph58%29.95 "Hg2 mi
11:25 PM79 °FHaze.3 mph54%29.95 "Hg2 mi
10:55 PM81 °FHaze.5 mph48%29.95 "Hg3 mi
9:55 PM81 °FClear.2 mph39%29.95 "Hg4 mi
9:25 PM81 °FClear.3 mph45%29.95 "Hg4 mi
8:55 PM82 °FClear.3 mph42%29.95 "Hg4 mi
8:30 PM84 °FClear.3 mph40%29.92 "Hg4 mi
8:00 PM86 °FClear.6 mph33%29.92 "Hg4 mi
7:25 PM88 °FClear.7 mph29%29.92 "Hg4 mi
6:55 PM88 °FClear.8 mph25%29.92 "Hg4 mi
6:25 PM90 °FClear.6 mph26%29.89 "Hg4 mi
5:55 PM91 °FClear.8 mph23%29.89 "Hg4 mi
5:25 PM93 °FClear.12 mph24%29.89 "Hg4 mi
4:55 PM95 °FClear.12 mph22%29.89 "Hg4 mi
4:25 PM95 °FClear.10 mph20%29.89 "Hg4 mi
3:55 PM97 °FClear.12 mph20%29.89 "Hg4 mi
3:25 PM97 °FClear.12 mph20%29.89 "Hg4 mi
Weather by CustomWeather, © 2014

See weather overviewHow to use our weather pages